Location: Glion
(46.4330°N, 6.9246°E)
Time: 17:40:36
(UTC+00:00)

Cosmos 2278 Rocket - Pass Details

Date: 03 March 2021
Orbit: 842 x 845 km, 71.0° (Epoch: 19 April)

Event Time Altitude Azimuth Distance (km) Brightness Sun altitude
Rises 18:39:38 0° 340° (NNW) 3,415 5.7 -14.3°
Reaches altitude 10° 18:42:45 10° 356° (N) 2,476 4.8 -14.8°
Maximum altitude 18:46:56 21° 44° (NE) 1,833 3.6 -15.5°
Enters shadow 18:48:24 19° 65° (ENE) 1,922 3.6 -15.8°
